EN

Hourly Weather Al Qubbah

Today, 16 January, Saturday

Time Temperature Precipitation Wind Pressure Humidity
00:00 +12°C° 0 mm 5 mps 745 mmHg 85%
01:00 +12°C° 0 mm 5 mps 745 mmHg 87%
02:00 +10°C° 0 mm 5 mps 744 mmHg 87%
03:00 +10°C° 0 mm 5 mps 744 mmHg 88%
04:00 +10°C° 0 mm 5 mps 744 mmHg 88%
05:00 +10°C° 0 mm 5 mps 744 mmHg 89%
06:00 +10°C° 0 mm 5 mps 744 mmHg 89%
07:00 +9°C° 0 mm 5 mps 744 mmHg 90%
08:00 +11°C° 0 mm 6 mps 745 mmHg 79%
09:00 +14°C° 0 mm 6 mps 745 mmHg 69%
10:00 +15°C° 0 mm 7 mps 745 mmHg 59%
11:00 +16°C° 0 mm 7 mps 745 mmHg 54%
12:00 +17°C° 0 mm 8 mps 744 mmHg 49%
13:00 +17°C° 0 mm 8 mps 743 mmHg 44%
14:00 +17°C° 0 mm 9 mps 743 mmHg 46%
15:00 +17°C° 0 mm 9 mps 743 mmHg 48%
16:00 +16°C° 0 mm 9 mps 743 mmHg 49%
17:00 +15°C° 0 mm 8 mps 743 mmHg 53%
18:00 +14°C° 0 mm 7 mps 744 mmHg 58%
19:00 +12°C° 0 mm 7 mps 744 mmHg 62%
20:00 +13°C° 0 mm 6 mps 744 mmHg 65%
21:00 +11°C° 0 mm 6 mps 745 mmHg 69%
22:00 +11°C° 0 mm 6 mps 745 mmHg 72%
23:00 +10°C° 0 mm 5 mps 745 mmHg 76%

Tomorrow, 17 January, Sunday

Time Temperature Precipitation Wind Pressure Humidity
00:00 +10°C° 0 mm 5 mps 745 mmHg 80%
01:00 +11°C° 0 mm 4 mps 745 mmHg 83%
02:00 +10°C° 0 mm 4 mps 745 mmHg 80%
03:00 +10°C° 0 mm 4 mps 745 mmHg 77%
04:00 +10°C° 0 mm 3 mps 745 mmHg 74%
05:00 +10°C° 0 mm 3 mps 746 mmHg 73%
06:00 +9°C° 0 mm 3 mps 746 mmHg 73%
07:00 +9°C° 0 mm 3 mps 746 mmHg 72%
08:00 +10°C° 0 mm 4 mps 747 mmHg 65%
09:00 +10°C° 0 mm 5 mps 748 mmHg 58%
10:00 +13°C° 0 mm 5 mps 749 mmHg 51%
11:00 +13°C° 0 mm 6 mps 749 mmHg 48%
12:00 +12°C° 0 mm 7 mps 748 mmHg 45%
13:00 +13°C° 0 mm 8 mps 748 mmHg 41%
14:00 +12°C° 0 mm 7 mps 749 mmHg 43%
15:00 +12°C° 0 mm 7 mps 749 mmHg 44%
16:00 +11°C° 0 mm 7 mps 749 mmHg 46%
17:00 +11°C° 0 mm 6 mps 749 mmHg 49%
18:00 +10°C° 0 mm 5 mps 750 mmHg 52%
19:00 +9°C° 0 mm 5 mps 750 mmHg 54%
20:00 +10°C° 0 mm 4 mps 750 mmHg 56%
21:00 +8°C° 0 mm 4 mps 750 mmHg 59%
22:00 +9°C° 0 mm 3 mps 751 mmHg 61%
23:00 +9°C° 0 mm 3 mps 751 mmHg 63%

Day after tomorrow, 18 January, Monday

Time Temperature Precipitation Wind Pressure Humidity
00:00 +8°C° 0 mm 3 mps 751 mmHg 66%
01:00 +8°C° 0 mm 3 mps 751 mmHg 68%
02:00 +7°C° 0 mm 4 mps 750 mmHg 69%
03:00 +7°C° 0 mm 4 mps 750 mmHg 71%
04:00 +6°C° 0 mm 4 mps 750 mmHg 72%
05:00 +6°C° 0 mm 4 mps 750 mmHg 73%
06:00 +7°C° 0 mm 5 mps 750 mmHg 74%
07:00 +7°C° 0 mm 5 mps 750 mmHg 75%
08:00 +8°C° 0 mm 7 mps 750 mmHg 70%
09:00 +10°C° 0 mm 9 mps 750 mmHg 64%
10:00 +12°C° 0 mm 10 mps 750 mmHg 59%
11:00 +12°C° 0 mm 10 mps 749 mmHg 61%
12:00 +12°C° 0 mm 10 mps 749 mmHg 63%
13:00 +12°C° 0 mm 10 mps 748 mmHg 65%
14:00 +13°C° 0.1 mm 9 mps 748 mmHg 62%
15:00 +15°C° 0.1 mm 9 mps 748 mmHg 59%
16:00 +15°C° 0.1 mm 8 mps 748 mmHg 57%
17:00 +14°C° 0 mm 7 mps 748 mmHg 61%
18:00 +12°C° 0 mm 7 mps 748 mmHg 66%
19:00 +11°C° 0 mm 6 mps 748 mmHg 71%
20:00 +11°C° 0 mm 6 mps 749 mmHg 73%
21:00 +12°C° 0 mm 5 mps 749 mmHg 76%
22:00 +10°C° 0 mm 5 mps 749 mmHg 78%
23:00 +10°C° 0 mm 5 mps 749 mmHg 78%

19 January, Tuesday

Time Temperature Precipitation Wind Pressure Humidity
00:00 +10°C° 0 mm 4 mps 749 mmHg 79%
01:00 +10°C° 0 mm 4 mps 750 mmHg 79%
02:00 +8°C° 0 mm 4 mps 750 mmHg 80%
03:00 +9°C° 0 mm 3 mps 750 mmHg 81%
04:00 +9°C° 0 mm 3 mps 750 mmHg 81%
05:00 +9°C° 0 mm 3 mps 750 mmHg 82%
06:00 +8°C° 0 mm 3 mps 751 mmHg 83%
07:00 +8°C° 0 mm 3 mps 751 mmHg 83%
08:00 +10°C° 0 mm 3 mps 752 mmHg 75%
09:00 +11°C° 0 mm 4 mps 752 mmHg 67%
10:00 +12°C° 0 mm 4 mps 753 mmHg 59%
11:00 +13°C° 0 mm 5 mps 752 mmHg 54%
12:00 +13°C° 0 mm 5 mps 752 mmHg 50%
13:00 +14°C° 0 mm 6 mps 752 mmHg 45%
14:00 +13°C° 0 mm 6 mps 752 mmHg 45%
15:00 +13°C° 0 mm 6 mps 752 mmHg 44%
16:00 +13°C° 0 mm 6 mps 752 mmHg 44%
17:00 +12°C° 0 mm 5 mps 753 mmHg 49%
18:00 +10°C° 0 mm 5 mps 753 mmHg 55%
19:00 +10°C° 0 mm 4 mps 754 mmHg 61%
20:00 +10°C° 0 mm 4 mps 754 mmHg 63%
21:00 +8°C° 0 mm 4 mps 754 mmHg 64%
22:00 +8°C° 0 mm 4 mps 755 mmHg 66%
23:00 +8°C° 0 mm 3 mps 755 mmHg 68%

20 January, Wednesday

Time Temperature Precipitation Wind Pressure Humidity
00:00 +8°C° 0 mm 3 mps 755 mmHg 69%
01:00 +8°C° 0 mm 3 mps 755 mmHg 71%
02:00 +8°C° 0 mm 3 mps 755 mmHg 72%
03:00 +8°C° 0 mm 3 mps 755 mmHg 74%
04:00 +7°C° 0 mm 3 mps 755 mmHg 76%
05:00 +7°C° 0 mm 3 mps 755 mmHg 74%
06:00 +7°C° 0 mm 3 mps 756 mmHg 73%
07:00 +7°C° 0 mm 3 mps 756 mmHg 71%
08:00 +9°C° 0 mm 3 mps 756 mmHg 65%
09:00 +10°C° 0 mm 4 mps 757 mmHg 58%
10:00 +12°C° 0 mm 4 mps 757 mmHg 51%
11:00 +12°C° 0 mm 4 mps 757 mmHg 49%
12:00 +13°C° 0 mm 3 mps 757 mmHg 48%
13:00 +13°C° 0 mm 3 mps 756 mmHg 46%
14:00 +13°C° 0 mm 3 mps 756 mmHg 46%
15:00 +13°C° 0 mm 3 mps 756 mmHg 46%
16:00 +14°C° 0 mm 2 mps 756 mmHg 46%
17:00 +12°C° 0 mm 3 mps 756 mmHg 50%
18:00 +11°C° 0 mm 3 mps 756 mmHg 54%
19:00 +10°C° 0 mm 3 mps 757 mmHg 58%
20:00 +10°C° 0 mm 3 mps 757 mmHg 61%
21:00 +9°C° 0 mm 2 mps 757 mmHg 63%
22:00 +9°C° 0 mm 2 mps 757 mmHg 66%
23:00 +8°C° 0 mm 2 mps 757 mmHg 67%

21 January, Thursday

Time Temperature Precipitation Wind Pressure Humidity
00:00 +9°C° 0 mm 1 mps 757 mmHg 69%
01:00 +8°C° 0 mm 1 mps 756 mmHg 71%
02:00 +8°C° 0 mm 1 mps 756 mmHg 72%
03:00 +8°C° 0 mm 1 mps 756 mmHg 73%
04:00 +7°C° 0 mm 1 mps 756 mmHg 74%
05:00 +7°C° 0 mm 1 mps 756 mmHg 73%
06:00 +7°C° 0 mm 1 mps 757 mmHg 72%
07:00 +7°C° 0 mm 1 mps 757 mmHg 72%
08:00 +8°C° 0 mm 2 mps 757 mmHg 65%
09:00 +9°C° 0 mm 2 mps 757 mmHg 58%
10:00 +12°C° 0 mm 2 mps 757 mmHg 52%
11:00 +13°C° 0 mm 2 mps 757 mmHg 49%
12:00 +13°C° 0 mm 2 mps 757 mmHg 46%
13:00 +14°C° 0 mm 2 mps 756 mmHg 43%
14:00 +14°C° 0 mm 2 mps 756 mmHg 43%
15:00 +14°C° 0 mm 2 mps 756 mmHg 42%
16:00 +14°C° 0 mm 1 mps 755 mmHg 41%
17:00 +14°C° 0 mm 1 mps 755 mmHg 44%
18:00 +13°C° 0 mm 1 mps 755 mmHg 46%
19:00 +12°C° 0 mm 1 mps 755 mmHg 49%
20:00 +12°C° 0 mm 2 mps 755 mmHg 50%
21:00 +10°C° 0 mm 2 mps 755 mmHg 52%
22:00 +10°C° 0 mm 2 mps 755 mmHg 53%
23:00 +9°C° 0 mm 2 mps 755 mmHg 54%
Show more